Time,TemperatureF,DewpointF,PressureIn,WindDirection,WindDirectionDegrees,WindSpeedMPH,WindSpeedGustMPH,Humidity,HourlyPrecipIn,Conditions,Clouds,dailyrainin,SoftwareType,DateUTC
2013-03-08 00:02:00,28.8,26.8,30.40,ESE,117,2.0,2.0,92,0.00,,,0.00,Wunderground v.1.15,2013-03-08 06:02:00,
2013-03-08 00:12:00,29.1,26.8,30.40,ESE,117,2.0,2.0,91,0.00,,,0.00,Wunderground v.1.15,2013-03-08 06:12:00,
2013-03-08 00:22:00,29.3,27.0,30.41,ESE,117,2.0,2.0,91,0.00,,,0.00,Wunderground v.1.15,2013-03-08 06:22:00,
2013-03-08 00:32:00,29.3,27.0,30.41,ESE,117,1.0,1.0,91,0.00,,,0.00,Wunderground v.1.15,2013-03-08 06:32:00,
2013-03-08 00:42:00,29.3,27.0,30.41,ESE,117,1.0,2.0,91,0.00,,,0.00,Wunderground v.1.15,2013-03-08 06:42:00,
2013-03-08 00:52:00,29.3,27.0,30.41,ESE,117,2.0,2.0,91,0.00,,,0.00,Wunderground v.1.15,2013-03-08 06:52:00,
2013-03-08 01:02:00,29.2,26.6,30.42,ESE,117,1.0,1.0,90,0.00,,,0.00,Wunderground v.1.15,2013-03-08 07:02:00,
2013-03-08 01:12:00,29.0,26.7,30.42,ESE,117,1.0,2.0,91,0.00,,,0.00,Wunderground v.1.15,2013-03-08 07:12:00,
2013-03-08 01:22:00,28.9,26.6,30.42,ESE,117,2.0,2.0,91,0.00,,,0.00,Wunderground v.1.15,2013-03-08 07:22:00,
2013-03-08 01:32:00,28.9,26.6,30.42,ESE,117,2.0,3.0,91,0.00,,,0.00,Wunderground v.1.15,2013-03-08 07:32:00,
2013-03-08 01:42:00,29.0,26.7,30.42,East,100,3.0,5.0,91,0.00,,,0.00,Wunderground v.1.15,2013-03-08 07:42:00,
2013-03-08 01:52:00,29.0,26.7,30.41,East,98,3.0,3.0,91,0.00,,,0.00,Wunderground v.1.15,2013-03-08 07:52:00,
2013-03-08 02:02:00,28.9,26.6,30.41,ESE,110,3.0,4.0,91,0.00,,,0.00,Wunderground v.1.15,2013-03-08 08:02:00,
2013-03-08 02:12:00,28.8,26.5,30.41,ESE,110,1.0,1.0,91,0.00,,,0.00,Wunderground v.1.15,2013-03-08 08:12:00,
2013-03-08 02:22:00,28.7,26.4,30.41,ESE,110,1.0,1.0,91,0.00,,,0.00,Wunderground v.1.15,2013-03-08 08:22:00,
2013-03-08 02:32:00,28.5,26.2,30.41,ESE,110,0.0,0.0,91,0.00,,,0.00,Wunderground v.1.15,2013-03-08 08:32:00,
2013-03-08 02:42:00,28.3,26.0,30.41,ESE,110,0.0,0.0,91,0.00,,,0.00,Wunderground v.1.15,2013-03-08 08:42:00,
2013-03-08 02:52:00,28.0,25.7,30.41,ESE,110,0.0,0.0,91,0.00,,,0.00,Wunderground v.1.15,2013-03-08 08:52:00,
2013-03-08 03:02:00,27.8,25.8,30.41,ESE,110,0.0,7.0,92,0.00,,,0.00,Wunderground v.1.15,2013-03-08 09:02:00,
2013-03-08 03:12:00,27.6,25.6,30.41,ESE,110,0.0,0.0,92,0.00,,,0.00,Wunderground v.1.15,2013-03-08 09:12:00,
2013-03-08 03:22:00,27.4,25.4,30.41,ESE,110,0.0,0.0,92,0.00,,,0.00,Wunderground v.1.15,2013-03-08 09:22:00,
2013-03-08 03:32:00,27.2,25.2,30.41,ESE,110,1.0,2.0,92,0.00,,,0.00,Wunderground v.1.15,2013-03-08 09:32:00,
2013-03-08 03:42:00,27.1,25.1,30.42,ESE,110,1.0,1.0,92,0.00,,,0.00,Wunderground v.1.15,2013-03-08 09:42:00,
2013-03-08 03:52:00,27.1,25.1,30.42,ESE,110,2.0,2.0,92,0.00,,,0.00,Wunderground v.1.15,2013-03-08 09:52:00,
2013-03-08 04:02:00,27.2,25.4,30.42,ESE,110,1.0,2.0,93,0.00,,,0.00,Wunderground v.1.15,2013-03-08 10:02:00,
2013-03-08 04:12:00,27.2,25.4,30.42,ESE,110,1.0,1.0,93,0.00,,,0.00,Wunderground v.1.15,2013-03-08 10:12:00,
2013-03-08 04:22:00,27.2,25.4,30.42,ESE,110,1.0,2.0,93,0.00,,,0.00,Wunderground v.1.15,2013-03-08 10:22:00,
2013-03-08 04:32:00,27.3,25.5,30.42,ESE,110,2.0,2.0,93,0.00,,,0.00,Wunderground v.1.15,2013-03-08 10:32:00,
2013-03-08 04:42:00,27.1,25.3,30.42,ESE,110,2.0,2.0,93,0.00,,,0.00,Wunderground v.1.15,2013-03-08 10:42:00,
2013-03-08 04:52:00,27.2,25.4,30.42,ESE,110,2.0,4.0,93,0.00,,,0.00,Wunderground v.1.15,2013-03-08 10:52:00,
2013-03-08 05:02:00,27.2,25.4,30.42,ESE,105,3.0,4.0,93,0.00,,,0.00,Wunderground v.1.15,2013-03-08 11:02:00,
2013-03-08 05:12:00,27.2,25.4,30.43,ESE,104,2.0,2.0,93,0.00,,,0.00,Wunderground v.1.15,2013-03-08 11:12:00,
2013-03-08 05:22:00,27.1,25.3,30.43,ESE,104,2.0,2.0,93,0.00,,,0.00,Wunderground v.1.15,2013-03-08 11:22:00,
2013-03-08 05:32:00,27.1,25.3,30.43,ESE,104,2.0,2.0,93,0.00,,,0.00,Wunderground v.1.15,2013-03-08 11:32:00,
2013-03-08 05:42:00,27.1,25.3,30.43,East,101,3.0,3.0,93,0.00,,,0.00,Wunderground v.1.15,2013-03-08 11:42:00,
2013-03-08 05:52:00,27.1,25.6,30.43,East,94,2.0,2.0,94,0.00,,,0.00,Wunderground v.1.15,2013-03-08 11:52:00,
2013-03-08 06:02:00,27.1,25.6,30.43,East,94,2.0,5.0,94,0.00,,,0.00,Wunderground v.1.15,2013-03-08 12:02:00,
2013-03-08 06:12:00,27.0,25.2,30.44,East,89,2.0,2.0,93,0.00,,,0.00,Wunderground v.1.15,2013-03-08 12:12:00,
2013-03-08 06:22:00,26.9,25.1,30.44,East,99,2.0,3.0,93,0.00,,,0.00,Wunderground v.1.15,2013-03-08 12:22:00,
2013-03-08 06:32:00,27.0,25.2,30.44,East,96,2.0,2.0,93,0.00,,,0.00,Wunderground v.1.15,2013-03-08 12:32:00,
2013-03-08 06:42:00,27.0,25.2,30.43,East,96,2.0,2.0,93,0.00,,,0.00,Wunderground v.1.15,2013-03-08 12:42:00,
2013-03-08 06:52:00,27.1,25.6,30.44,East,96,1.0,3.0,94,0.00,,,0.00,Wunderground v.1.15,2013-03-08 12:52:00,
2013-03-08 07:02:00,27.3,25.8,30.43,East,88,2.0,2.0,94,0.00,,,0.00,Wunderground v.1.15,2013-03-08 13:02:00,
2013-03-08 07:12:00,27.8,26.3,30.44,East,84,2.0,2.0,94,0.00,,,0.00,Wunderground v.1.15,2013-03-08 13:12:00,
2013-03-08 07:22:00,28.6,27.1,30.44,East,101,1.0,1.0,94,0.00,,,0.00,Wunderground v.1.15,2013-03-08 13:22:00,
2013-03-08 07:32:00,29.7,28.2,30.44,ESE,109,2.0,2.0,94,0.00,,,0.00,Wunderground v.1.15,2013-03-08 13:32:00,
2013-03-08 07:42:00,30.8,29.3,30.44,ESE,121,3.0,3.0,94,0.00,,,0.00,Wunderground v.1.15,2013-03-08 13:42:00,
2013-03-08 07:52:00,31.6,29.3,30.44,ESE,113,3.0,3.0,91,0.00,,,0.01,Wunderground v.1.15,2013-03-08 13:52:00,
2013-03-08 08:02:00,32.5,29.6,30.44,ESE,117,2.0,5.0,89,0.00,,,0.01,Wunderground v.1.15,2013-03-08 14:02:00,
2013-03-08 08:12:00,33.3,29.6,30.44,ESE,106,4.0,8.0,86,0.00,,,0.01,Wunderground v.1.15,2013-03-08 14:12:00,
2013-03-08 08:22:00,33.9,29.6,30.43,SSE,165,6.0,6.0,84,0.00,,,0.01,Wunderground v.1.15,2013-03-08 14:22:00,
2013-03-08 08:32:00,34.4,29.8,30.43,SSE,150,5.0,5.0,83,0.00,,,0.01,Wunderground v.1.15,2013-03-08 14:32:00,
2013-03-08 08:42:00,35.0,30.4,30.43,SE,142,6.0,10.0,83,0.00,,,0.01,Wunderground v.1.15,2013-03-08 14:42:00,
2013-03-08 08:52:00,35.5,30.8,30.44,ESE,123,6.0,6.0,83,0.00,,,0.01,Wunderground v.1.15,2013-03-08 14:52:00,
2013-03-08 09:02:00,35.6,30.9,30.44,SSE,157,6.0,6.0,83,0.00,,,0.01,Wunderground v.1.15,2013-03-08 15:02:00,
2013-03-08 09:12:00,36.3,31.6,30.44,SE,136,5.0,5.0,83,0.00,,,0.01,Wunderground v.1.15,2013-03-08 15:12:00,
2013-03-08 09:22:00,37.3,32.6,30.44,SE,145,5.0,7.0,83,0.00,,,0.01,Wunderground v.1.15,2013-03-08 15:22:00,
2013-03-08 09:32:00,37.3,32.3,30.45,SE,138,7.0,7.0,82,0.00,,,0.01,Wunderground v.1.15,2013-03-08 15:32:00,
2013-03-08 09:42:00,37.7,32.7,30.45,SSW,196,7.0,7.0,82,0.00,,,0.01,Wunderground v.1.15,2013-03-08 15:42:00,
2013-03-08 09:52:00,38.1,33.1,30.45,SSE,147,5.0,9.0,82,0.00,,,0.01,Wunderground v.1.15,2013-03-08 15:52:00,
2013-03-08 10:02:00,38.3,33.3,30.45,SSW,196,6.0,14.0,82,0.00,,,0.01,Wunderground v.1.15,2013-03-08 16:02:00,
2013-03-08 10:12:00,38.8,33.8,30.45,SE,136,6.0,9.0,82,0.00,,,0.01,Wunderground v.1.15,2013-03-08 16:12:00,
2013-03-08 10:22:00,39.3,34.0,30.45,SE,128,6.0,8.0,81,0.00,,,0.01,Wunderground v.1.15,2013-03-08 16:22:00,
2013-03-08 10:32:00,39.8,34.8,30.44,East,100,6.0,6.0,82,0.00,,,0.01,Wunderground v.1.15,2013-03-08 16:32:00,
2013-03-08 10:42:00,40.1,34.4,30.45,SE,141,6.0,7.0,80,0.00,,,0.01,Wunderground v.1.15,2013-03-08 16:42:00,
2013-03-08 10:52:00,40.4,34.7,30.44,SSE,168,7.0,11.0,80,0.00,,,0.01,Wunderground v.1.15,2013-03-08 16:52:00,
2013-03-08 11:02:00,40.3,34.9,30.44,SE,128,6.0,14.0,81,0.00,,,0.01,Wunderground v.1.15,2013-03-08 17:02:00,
2013-03-08 11:12:00,40.7,35.6,30.43,SSE,161,6.0,6.0,82,0.00,,,0.01,Wunderground v.1.15,2013-03-08 17:12:00,
2013-03-08 11:22:00,41.3,35.3,30.43,SSE,147,6.0,6.0,79,0.00,,,0.01,Wunderground v.1.15,2013-03-08 17:22:00,
2013-03-08 11:32:00,41.5,35.5,30.42,SSW,194,7.0,7.0,79,0.00,,,0.01,Wunderground v.1.15,2013-03-08 17:32:00,
2013-03-08 11:42:00,41.5,35.5,30.43,SE,146,8.0,8.0,79,0.00,,,0.01,Wunderground v.1.15,2013-03-08 17:42:00,
2013-03-08 11:52:00,42.2,35.8,30.41,SSE,166,7.0,7.0,78,0.00,,,0.01,Wunderground v.1.15,2013-03-08 17:52:00,
2013-03-08 12:02:00,42.8,36.4,30.41,SE,136,6.0,14.0,78,0.00,,,0.01,Wunderground v.1.15,2013-03-08 18:02:00,
2013-03-08 12:12:00,42.8,35.8,30.40,ESE,111,7.0,7.0,76,0.00,,,0.01,Wunderground v.1.15,2013-03-08 18:12:00,
2013-03-08 12:22:00,43.7,37.0,30.40,SSE,150,6.0,8.0,77,0.00,,,0.01,Wunderground v.1.15,2013-03-08 18:22:00,
2013-03-08 12:32:00,43.3,36.6,30.39,South,175,7.0,7.0,77,0.00,,,0.01,Wunderground v.1.15,2013-03-08 18:32:00,
2013-03-08 12:42:00,43.4,37.0,30.38,SE,140,7.0,11.0,78,0.00,,,0.01,Wunderground v.1.15,2013-03-08 18:42:00,
2013-03-08 12:52:00,43.8,36.7,30.37,SE,133,6.0,6.0,76,0.00,,,0.01,Wunderground v.1.15,2013-03-08 18:52:00,
2013-03-08 13:02:00,44.1,37.3,30.37,SE,136,7.0,7.0,77,0.00,,,0.01,Wunderground v.1.15,2013-03-08 19:02:00,
2013-03-08 13:12:00,44.5,37.4,30.36,SE,130,7.0,7.0,76,0.00,,,0.01,Wunderground v.1.15,2013-03-08 19:12:00,
2013-03-08 13:22:00,44.8,38.0,30.35,SSE,153,6.0,6.0,77,0.00,,,0.01,Wunderground v.1.15,2013-03-08 19:22:00,
2013-03-08 13:32:00,45.1,38.0,30.35,SE,138,7.0,10.0,76,0.00,,,0.01,Wunderground v.1.15,2013-03-08 19:32:00,
2013-03-08 13:42:00,45.0,38.2,30.34,East,84,7.0,11.0,77,0.00,,,0.01,Wunderground v.1.15,2013-03-08 19:42:00,
2013-03-08 13:52:00,45.2,38.1,30.34,SE,134,7.0,7.0,76,0.00,,,0.01,Wunderground v.1.15,2013-03-08 19:52:00,
2013-03-08 14:02:00,45.5,38.0,30.34,SE,144,6.0,15.0,75,0.00,,,0.01,Wunderground v.1.15,2013-03-08 20:02:00,
2013-03-08 14:12:00,45.0,37.9,30.33,SSE,151,8.0,8.0,76,0.00,,,0.01,Wunderground v.1.15,2013-03-08 20:12:00,
2013-03-08 14:22:00,45.5,38.0,30.33,SE,136,6.0,10.0,75,0.00,,,0.01,Wunderground v.1.15,2013-03-08 20:22:00,
2013-03-08 14:32:00,46.1,38.6,30.33,SSE,166,6.0,7.0,75,0.00,,,0.01,Wunderground v.1.15,2013-03-08 20:32:00,
2013-03-08 14:42:00,46.3,38.8,30.33,SE,135,5.0,5.0,75,0.00,,,0.01,Wunderground v.1.15,2013-03-08 20:42:00,
2013-03-08 14:52:00,45.9,38.1,30.33,ESE,113,6.0,6.0,74,0.00,,,0.01,Wunderground v.1.15,2013-03-08 20:52:00,
2013-03-08 15:02:00,46.4,38.9,30.33,SSE,153,6.0,15.0,75,0.00,,,0.01,Wunderground v.1.15,2013-03-08 21:02:00,
2013-03-08 15:12:00,47.2,39.7,30.32,ESE,102,5.0,5.0,75,0.00,,,0.01,Wunderground v.1.15,2013-03-08 21:12:00,
2013-03-08 15:22:00,46.8,39.3,30.32,SE,134,5.0,5.0,75,0.00,,,0.01,Wunderground v.1.15,2013-03-08 21:22:00,
2013-03-08 15:32:00,46.9,39.4,30.32,SE,132,6.0,9.0,75,0.00,,,0.01,Wunderground v.1.15,2013-03-08 21:32:00,
2013-03-08 15:42:00,47.2,39.7,30.32,SSE,163,5.0,5.0,75,0.00,,,0.01,Wunderground v.1.15,2013-03-08 21:42:00,
2013-03-08 15:52:00,46.9,39.7,30.32,SE,133,5.0,5.0,76,0.00,,,0.01,Wunderground v.1.15,2013-03-08 21:52:00,
2013-03-08 16:02:00,46.9,39.4,30.32,SE,138,6.0,14.0,75,0.00,,,0.01,Wunderground v.1.15,2013-03-08 22:02:00,
2013-03-08 16:12:00,46.8,39.6,30.32,SE,141,6.0,6.0,76,0.00,,,0.01,Wunderground v.1.15,2013-03-08 22:12:00,
2013-03-08 16:22:00,46.4,38.9,30.32,SE,138,5.0,5.0,75,0.00,,,0.01,Wunderground v.1.15,2013-03-08 22:22:00,
2013-03-08 16:32:00,46.0,39.2,30.32,SE,132,4.0,8.0,77,0.00,,,0.01,Wunderground v.1.15,2013-03-08 22:32:00,
2013-03-08 16:42:00,46.5,39.7,30.32,SE,129,4.0,4.0,77,0.00,,,0.01,Wunderground v.1.15,2013-03-08 22:42:00,
2013-03-08 16:52:00,46.7,39.9,30.32,SE,124,4.0,5.0,77,0.00,,,0.01,Wunderground v.1.15,2013-03-08 22:52:00,
2013-03-08 17:02:00,46.2,39.4,30.32,ESE,113,4.0,13.0,77,0.00,,,0.01,Wunderground v.1.15,2013-03-08 23:02:00,
2013-03-08 17:12:00,45.4,38.9,30.32,ESE,104,3.0,3.0,78,0.00,,,0.01,Wunderground v.1.15,2013-03-08 23:12:00,
2013-03-08 17:22:00,44.7,38.9,30.33,ESE,109,2.0,2.0,80,0.00,,,0.01,Wunderground v.1.15,2013-03-08 23:22:00,
2013-03-08 17:32:00,44.0,38.2,30.33,ESE,103,2.0,2.0,80,0.00,,,0.01,Wunderground v.1.15,2013-03-08 23:32:00,
2013-03-08 17:42:00,43.1,38.0,30.33,ESE,103,1.0,2.0,82,0.00,,,0.01,Wunderground v.1.15,2013-03-08 23:42:00,
2013-03-08 17:52:00,42.2,37.4,30.32,ESE,103,1.0,2.0,83,0.00,,,0.01,Wunderground v.1.15,2013-03-08 23:52:00,
2013-03-08 18:02:00,41.1,36.6,30.32,ESE,103,2.0,8.0,84,0.00,,,0.01,Wunderground v.1.15,2013-03-09 00:02:00,
2013-03-08 18:12:00,40.4,36.2,30.32,East,92,3.0,5.0,85,0.00,,,0.01,Wunderground v.1.15,2013-03-09 00:12:00,
2013-03-08 18:22:00,39.9,36.1,30.31,East,80,3.0,5.0,86,0.00,,,0.01,Wunderground v.1.15,2013-03-09 00:22:00,
2013-03-08 18:32:00,39.6,36.0,30.32,East,89,3.0,3.0,87,0.00,,,0.01,Wunderground v.1.15,2013-03-09 00:32:00,
2013-03-08 18:42:00,39.5,36.2,30.31,East,87,3.0,6.0,88,0.00,,,0.01,Wunderground v.1.15,2013-03-09 00:42:00,
2013-03-08 18:52:00,39.6,36.3,30.31,SE,140,3.0,3.0,88,0.00,,,0.01,Wunderground v.1.15,2013-03-09 00:52:00,
2013-03-08 19:02:00,39.3,36.0,30.31,East,90,4.0,4.0,88,0.00,,,0.01,Wunderground v.1.15,2013-03-09 01:02:00,
2013-03-08 19:12:00,38.9,35.9,30.31,East,96,3.0,3.0,89,0.00,,,0.01,Wunderground v.1.15,2013-03-09 01:12:00,
2013-03-08 19:22:00,38.7,35.7,30.31,East,95,2.0,2.0,89,0.00,,,0.01,Wunderground v.1.15,2013-03-09 01:22:00,
2013-03-08 19:32:00,38.7,36.0,30.31,ESE,112,2.0,4.0,90,0.00,,,0.01,Wunderground v.1.15,2013-03-09 01:32:00,
2013-03-08 19:42:00,39.2,36.5,30.30,ESE,102,4.0,4.0,90,0.00,,,0.01,Wunderground v.1.15,2013-03-09 01:42:00,
2013-03-08 19:52:00,39.6,36.6,30.30,SE,128,5.0,7.0,89,0.00,,,0.01,Wunderground v.1.15,2013-03-09 01:52:00,
2013-03-08 20:02:00,39.8,36.5,30.29,ESE,104,5.0,5.0,88,0.00,,,0.01,Wunderground v.1.15,2013-03-09 02:02:00,
2013-03-08 20:12:00,39.9,36.3,30.29,ESE,123,5.0,5.0,87,0.00,,,0.01,Wunderground v.1.15,2013-03-09 02:12:00,
2013-03-08 20:22:00,39.9,36.1,30.28,East,96,5.0,5.0,86,0.00,,,0.01,Wunderground v.1.15,2013-03-09 02:22:00,
2013-03-08 20:32:00,39.8,36.0,30.28,East,98,4.0,5.0,86,0.00,,,0.01,Wunderground v.1.15,2013-03-09 02:32:00,
2013-03-08 20:42:00,39.6,35.8,30.28,ESE,102,4.0,5.0,86,0.00,,,0.01,Wunderground v.1.15,2013-03-09 02:42:00,
2013-03-08 20:52:00,39.6,35.8,30.28,ESE,123,5.0,5.0,86,0.00,,,0.01,Wunderground v.1.15,2013-03-09 02:52:00,
2013-03-08 21:02:00,39.7,35.9,30.28,ESE,107,5.0,9.0,86,0.00,,,0.01,Wunderground v.1.15,2013-03-09 03:02:00,
2013-03-08 21:12:00,39.8,35.7,30.27,SE,137,6.0,7.0,85,0.00,,,0.01,Wunderground v.1.15,2013-03-09 03:12:00,
2013-03-08 21:22:00,39.9,35.5,30.27,SE,133,6.0,6.0,84,0.00,,,0.01,Wunderground v.1.15,2013-03-09 03:22:00,
2013-03-08 21:32:00,40.0,35.6,30.27,ESE,116,5.0,7.0,84,0.00,,,0.01,Wunderground v.1.15,2013-03-09 03:32:00,
2013-03-08 21:42:00,40.1,35.4,30.27,ESE,119,5.0,7.0,83,0.00,,,0.01,Wunderground v.1.15,2013-03-09 03:42:00,
2013-03-08 21:52:00,40.1,35.0,30.27,SE,128,6.0,6.0,82,0.00,,,0.01,Wunderground v.1.15,2013-03-09 03:52:00,
2013-03-08 22:02:00,40.1,35.0,30.28,SE,126,4.0,10.0,82,0.00,,,0.01,Wunderground v.1.15,2013-03-09 04:02:00,
2013-03-08 22:12:00,40.2,35.1,30.27,ESE,117,5.0,5.0,82,0.00,,,0.01,Wunderground v.1.15,2013-03-09 04:12:00,
2013-03-08 22:22:00,40.2,34.8,30.26,ESE,114,5.0,5.0,81,0.00,,,0.01,Wunderground v.1.15,2013-03-09 04:22:00,
2013-03-08 22:32:00,40.0,34.9,30.26,SSE,154,5.0,5.0,82,0.00,,,0.01,Wunderground v.1.15,2013-03-09 04:32:00,
2013-03-08 22:42:00,40.0,34.9,30.26,SSE,157,5.0,9.0,82,0.00,,,0.01,Wunderground v.1.15,2013-03-09 04:42:00,
2013-03-08 22:52:00,39.9,34.9,30.25,ESE,120,5.0,9.0,82,0.00,,,0.01,Wunderground v.1.15,2013-03-09 04:52:00,
2013-03-08 23:02:00,39.9,34.9,30.24,East,90,5.0,13.0,82,0.00,,,0.01,Wunderground v.1.15,2013-03-09 05:02:00,
2013-03-08 23:12:00,39.9,34.5,30.24,ESE,123,6.0,6.0,81,0.00,,,0.01,Wunderground v.1.15,2013-03-09 05:12:00,
2013-03-08 23:22:00,39.9,34.5,30.24,SE,126,5.0,6.0,81,0.00,,,0.01,Wunderground v.1.15,2013-03-09 05:22:00,
2013-03-08 23:32:00,40.1,34.7,30.23,SE,128,6.0,6.0,81,0.00,,,0.01,Wunderground v.1.15,2013-03-09 05:32:00,
2013-03-08 23:42:00,40.2,34.5,30.23,SSE,148,5.0,7.0,80,0.00,,,0.01,Wunderground v.1.15,2013-03-09 05:42:00,
2013-03-08 23:52:00,40.0,34.6,30.24,SE,144,5.0,5.0,81,0.00,,,0.01,Wunderground v.1.15,2013-03-09 05:52:00,